FENGYUN 1C DEB, 29734

Orbit data source: Space-Track

FENGYUN 1C DEB, 29734 is space debris in SSO originally from a launch on Mon, 10 May 1999 UTC launched from the Taiyaun Space Center, China (TSC). Fengyun 1C debris stems from the Chinese weather satellite Fengyun-1C, which was intentionally destroyed by a Chinese anti-satellite missile in 2007. This event dramatically increased the amount of space debris, with thousands of trackable fragments posing hazards to satellites and human spaceflight. The Fengyun 1C debris cloud has become a focal point in discussions about space sustainability and the need for international regulations to prevent the creation of new debris.

Loading next visibility...
Identifier
29734, 1999-025Y
Orbit
SSO
Country
Flag of CNCN / PRC
Related business
Manufacturer
Unknown
Mission
Spacecraft
Bus & Motor
Unknown
Mass
Unknown
Launch date (UTC)
1999-05-10 (27 years ago)
Launch vehicle
Unknown
Launch site
Taiyaun Space Center, China (TSC)
Object type
Payload
Rocket body
Debris
Shape & HBR
Unknown shape, 0.1 m
Radar Cross Section
Medium (>0.1 m² and <1 m²)

Expand to show TLE details & history
Last TLE update: 22 hours ago

TLE from 22 hours ago
0 FENGYUN 1C DEB
1 29734U 99025Y   26255.15744933  .00001961  00000-0  32059-2 0  9994
2 29734  99.1662 145.4795 0609135 103.8109  45.9452 12.92085665920780
Epoch: 2026-09-12T03:46Z
TLE epoch observation values (Epoch: 2026-09-12T03:46:43.622Z)
Latitude
24.64357°
Longitude
-78.14983°
Altitude
986.759 km
Speed
7.507 km/s
True Right ascension
21h 58m 48s
True Declination
24° 31' 03"
Sunlit
Object was in full shadow at epoch
Visualization orbit readout
Latitude
Unknown
Longitude
Unknown
Altitude
Unknown
Speed
Unknown
Apparent Right ascension
Unknown
Apparent Declination
Unknown
Sunlit
N/A
Visualization observer readout
Local Sidereal Time
17:52:17
Azimuth
Unknown
Elevation
Unknown
Doppler factor
Unknown
Orbital elements
Apogee altitude
1,757.725 km
Perigee altitude
823.466 km
Semi-major axis
7,668.733 km
Eccentricity
0.06091
Inclination
99.1662°
RAAN
145.4795°
Arg. of periapsis
103.8109°
True anomaly
51.23388°
Mean anomaly
45.9452°
Eccentric anomaly
48.56161°
Mean motion
3.2319 °/min
Orbital period
111.39 mins
BSTAR
0.0032059
Loading maneuver chart data...
Computing Atmospheric mass density...

Documentation

Showing up to 5 results
|